Location: Arcones
(41.1182°N, 3.7238°W)
Time: 08:08:02
(UTC+00:00)

Cosmos 2263 Rocket - Pass Details

Date: 22 March 2026
Orbit: 823 x 846 km, 71.0° (Epoch: 18 April)

Event Time Altitude Azimuth Distance (km) Brightness Sun altitude
Rises 20:04:51 0° 349° (N) 3,394 5.7 -18.5°
Reaches altitude 10° 20:08:28 10° 13° (NNE) 2,450 4.7 -19.2°
Maximum altitude 20:11:38 15° 47° (NE) 2,099 4.0 -19.7°
Enters shadow 20:11:57 15° 51° (NE) 2,102 4.0 -19.8°
